Theta_e
322 322 321 321 321 320 320 319 319 319 319 319 320 320 321 321 320 315 311 314 319 331 325 312 310 307 304 302 305 305 296 296 298 302 305 319 322 330 330 332 337 339 334 335 332
321 321 321 320 320 320 319 318 319 319 319 319 319 320 321 321 313 309 320 334 334 334 308 305 303 305 298 298 300 297 293 296 304 307 306 310 324 328 327 326 331 334 337 334 331
321 321 321 321 320 319 319 318 318 318 318 319 319 320 320 319 310 313 340 334 338 328 307 306 305 303 298 299 298 297 296 300 304 307 309 306 320 328 328 323 327 329 330 329 328
320 320 320 320 319 319 318 318 317 318 318 318 318 319 321 316 299 312 336 336 332 314 306 303 302 297 295 296 300 295 301 302 304 307 305 305 322 320 325 325 338 336 331 329 327
320 319 320 320 320 319 319 317 317 317 317 317 318 320 316 310 312 324 340 337 320 312 306 303 300 299 295 297 299 296 299 303 304 303 302 305 308 319 318 332 333 334 334 331 330
320 319 319 319 319 319 318 318 317 316 317 318 319 320 315 305 318 321 324 330 319 312 308 306 304 304 300 298 296 301 301 302 303 301 302 301 310 326 326 329 328 332 332 332 331
319 319 319 319 319 319 318 317 316 316 317 319 320 319 312 307 317 315 319 319 318 315 308 310 311 306 303 299 302 302 298 300 301 302 301 304 300 311 325 329 327 328 330 332 330
319 319 319 319 319 319 318 318 316 316 318 319 320 316 308 322 319 314 313 313 315 313 312 310 309 305 301 303 301 297 296 291 298 302 304 302 296 320 324 322 324 330 333 332 330
318 318 318 318 318 318 318 317 317 317 319 320 315 311 310 324 313 312 311 310 313 312 311 315 304 301 303 297 293 294 290 295 297 302 302 301 298 319 328 322 320 323 330 331 327
318 318 318 318 318 317 316 316 317 315 318 319 317 309 315 313 316 317 314 314 311 312 309 306 299 295 294 291 288 292 292 295 298 302 304 301 300 310 330 330 325 324 328 329 327
318 318 317 317 317 316 313 309 310 310 312 314 315 315 316 318 318 314 316 312 310 308 301 303 295 291 294 296 297 298 297 296 301 304 300 300 303 308 313 327 328 329 329 329 327
317 317 317 317 317 316 311 309 313 311 305 315 318 318 318 315 311 314 316 306 305 301 304 300 295 301 303 302 299 297 296 296 301 304 299 299 299 309 311 324 328 328 328 328 329
316 316 316 316 316 309 308 315 321 317 305 313 317 312 310 312 311 311 313 308 304 301 301 298 302 307 305 302 300 297 295 296 297 302 300 299 296 299 307 322 327 329 329 329 329
316 316 316 315 311 313 314 321 315 318 300 309 310 313 313 313 311 318 316 311 305 301 303 301 306 305 303 301 301 293 301 301 299 295 290 296 289 295 301 315 320 324 326 327 324
315 316 315 312 309 308 316 314 319 315 295 311 311 320 317 311 312 314 318 312 305 308 307 304 305 305 305 306 308 303 308 300 299 295 291 295 289 292 298 298 308 321 325 326 327
315 315 314 313 311 312 317 318 315 302 296 306 310 308 307 311 311 312 312 314 317 309 309 305 311 307 304 302 307 309 305 303 298 293 287 292 293 292 299 302 305 307 314 323 325
315 315 312 314 312 318 321 315 303 297 309 302 303 306 305 305 307 305 302 304 301 296 296 302 302 301 301 297 300 302 299 290 289 289 286 299 297 295 303 307 308 307 310 320 319
312 312 312 315 319 322 319 308 297 301 300 305 303 304 303 302 302 301 299 297 300 298 294 291 290 296 300 296 292 295 299 291 287 288 289 298 294 296 305 307 307 309 309 318 322
309 315 318 325 322 320 313 301 296 300 301 300 301 298 298 300 298 297 296 299 299 297 289 289 290 299 300 299 296 292 289 299 294 295 291 293 299 306 304 304 306 306 307 307 319
315 319 318 325 318 318 307 301 302 303 302 302 295 299 293 295 294 294 294 299 298 299 297 293 287 297 298 299 298 293 296 287 293 284 285 291 294 294 297 298 303 303 304 308 311
317 315 316 317 321 312 301 301 303 304 304 300 298 296 297 295 295 293 295 297 299 298 298 295 291 292 295 292 291 292 290 291 290 293 287 286 291 298 298 300 301 304 306 308 310
321 311 314 317 307 308 298 303 300 303 304 303 303 299 297 297 296 295 295 297 301 300 295 296 290 286 290 298 300 297 294 294 289 284 288 289 286 300 299 299 301 302 307 310 312
314 316 318 316 301 302 304 302 302 301 301 301 301 301 301 296 293 297 299 302 301 301 295 295 289 285 288 292 297 294 296 296 293 290 286 283 286 302 301 300 303 305 309 311 312
316 308 311 312 308 304 302 302 300 304 303 303 303 303 299 296 298 296 298 302 302 302 309 303 293 290 284 289 293 291 294 295 292 286 288 288 290 294 297 297 298 303 306 307 304
319 307 306 301 301 303 302 301 299 300 304 304 301 301 297 292 295 296 297 298 301 306 302 299 290 293 294 295 296 293 291 291 291 292 287 290 290 294 297 298 298 302 305 305 304
308 306 307 305 305 303 300 301 301 301 302 302 299 300 298 294 296 293 294 293 295 300 297 297 289 292 290 295 295 290 292 292 292 293 291 291 291 296 300 299 299 303 304 302 302
316 313 309 303 303 301 301 304 303 301 302 304 302 298 298 300 300 298 297 298 298 296 295 293 291 288 285 293 292 289 289 291 291 292 291 286 293 298 295 296 296 297 303 302 301
Wind_Speed
12 12 13 12 12 12 13 13 13 13 13 13 14 15 15 16 17 4 8 15 8 11 5 7 9 9 6 6 7 6 5 11 13 19 12 7 8 21 24 22 14 16 18 26 23
12 12 12 12 12 12 13 13 13 13 13 13 13 14 14 14 5 11 14 16 7 9 2 6 11 9 5 6 5 4 4 10 14 18 13 10 9 20 4 6 3 16 20 27 25
13 13 12 12 13 12 12 12 13 14 13 13 13 14 12 11 6 8 3 19 10 6 4 6 9 7 8 8 9 8 11 11 19 19 12 12 4 1 21 5 10 6 26 26 21
13 13 13 12 12 12 12 13 13 14 14 13 13 14 12 4 2 1 6 7 8 5 4 4 6 6 5 8 10 7 13 15 18 18 10 13 4 5 3 10 20 10 17 15 19
12 12 12 11 11 12 11 12 13 14 14 13 13 13 5 3 12 7 11 7 3 4 5 6 7 8 8 7 8 6 11 14 13 11 9 10 3 6 11 18 35 14 5 12 12
12 12 12 11 11 12 12 11 11 12 13 12 11 13 3 7 8 12 11 7 8 6 6 8 9 12 9 9 6 9 9 11 10 11 8 7 5 10 5 13 19 16 9 11 9
12 11 11 11 11 12 11 12 11 11 13 11 9 5 6 17 6 2 11 9 7 10 8 8 11 9 9 9 10 10 10 11 8 9 10 7 10 7 18 18 17 18 12 13 11
12 11 11 11 12 12 12 13 12 13 13 11 7 4 9 10 8 10 9 9 7 7 9 8 7 6 4 8 11 9 6 5 10 9 12 4 8 14 25 20 15 12 12 17 16
12 11 12 12 13 13 13 14 14 14 12 8 4 4 10 8 6 9 8 8 7 6 5 6 4 3 7 6 8 7 7 10 11 10 9 7 9 13 25 20 18 21 23 20 12
12 11 11 11 12 12 15 14 8 9 6 7 8 5 8 5 5 3 4 8 6 4 5 6 2 2 4 1 5 9 8 9 11 8 13 13 10 10 28 24 26 25 23 19 16
11 11 10 11 11 9 10 2 1 1 5 10 8 7 12 5 7 7 7 6 6 5 6 7 3 8 15 14 11 14 13 14 15 13 5 15 18 12 15 20 22 21 20 18 13
11 10 10 11 10 6 4 4 6 7 9 13 19 18 4 3 5 8 8 2 6 9 9 5 10 17 15 14 16 16 16 16 9 10 5 10 8 11 8 19 27 24 18 15 16
9 9 9 10 9 4 6 9 10 9 3 11 12 5 3 3 6 10 10 8 8 9 11 8 13 10 14 8 7 8 6 6 8 13 7 7 9 6 5 12 19 17 12 12 18
9 8 8 8 4 4 6 11 2 5 3 5 0 4 6 7 5 6 3 3 4 9 10 7 10 11 12 8 11 5 10 10 10 7 9 3 10 8 6 9 15 18 25 24 21
9 8 7 2 7 5 8 5 5 4 5 15 3 2 5 4 4 2 8 3 8 5 7 12 15 14 17 20 21 15 27 10 11 8 3 9 4 9 8 10 9 16 24 27 26
9 7 6 4 4 11 12 11 4 1 2 6 10 11 14 6 10 11 11 10 8 7 10 9 15 6 10 20 17 10 26 13 6 1 3 4 7 6 10 13 25 26 18 18 29
9 6 3 5 6 6 8 4 4 2 3 10 15 10 9 8 5 7 8 12 8 6 9 9 5 17 26 25 20 14 14 8 8 6 3 20 10 5 15 17 18 25 29 16 32
12 7 11 8 8 6 3 2 3 12 10 13 10 16 6 17 11 12 10 8 18 13 4 6 8 20 18 12 8 16 7 2 6 6 13 17 7 3 13 18 25 28 31 44 34
15 3 4 7 14 3 1 3 3 7 10 10 12 8 9 14 8 8 5 12 8 11 4 5 5 14 12 14 6 8 5 9 15 16 4 7 9 6 24 25 25 27 30 32 22
3 4 6 13 5 3 2 4 5 7 7 8 7 8 7 10 8 9 4 7 5 11 7 6 7 7 17 11 12 8 9 8 1 6 5 3 4 5 15 17 18 21 21 25 25
1 3 4 5 4 3 3 4 8 11 7 6 6 5 7 8 8 9 7 7 8 7 8 7 4 10 10 6 14 11 8 6 2 3 2 3 2 3 4 8 10 9 13 17 20
3 3 3 2 3 1 3 4 4 6 8 4 4 5 6 7 5 6 8 7 9 8 6 3 2 4 10 11 13 11 11 11 4 9 3 5 3 4 3 3 6 7 7 10 10
3 5 4 6 4 5 3 7 3 5 5 5 4 4 3 4 4 8 5 6 9 5 3 2 3 5 9 8 14 7 13 10 5 4 4 3 2 5 9 12 9 8 13 9 19
3 4 5 5 4 4 5 1 5 3 4 3 2 4 4 4 7 5 7 11 10 7 7 5 2 3 4 9 11 4 12 11 4 2 3 1 5 9 7 9 14 11 12 11 14
2 1 3 3 5 6 5 5 7 4 2 5 3 3 5 3 5 6 7 7 10 4 3 4 2 6 9 14 9 7 7 7 7 5 1 7 4 6 7 13 13 8 8 13 12
4 5 6 3 1 5 4 4 2 3 1 1 1 6 6 4 4 4 5 4 4 5 5 2 2 4 7 11 9 3 6 7 7 6 5 10 3 7 7 10 11 9 6 11 14
5 5 1 4 3 3 2 2 2 4 6 5 1 3 6 5 5 5 5 6 6 4 5 1 3 2 6 6 6 3 3 3 3 2 2 3 3 2 5 6 5 7 3 4 6
Wind_Direction
315 318 312 314 316 314 312 313 313 309 309 310 315 315 321 323 310 215 237 226 196 241 221 273 271 239 230 256 267 285 257 256 253 265 288 232 148 207 190 212 195 189 150 152 153
314 308 306 311 315 311 312 314 311 308 311 313 319 317 325 328 281 245 238 223 195 196 205 268 267 208 207 224 243 184 244 246 260 271 277 301 102 152 121 279 209 130 146 146 154
308 304 308 310 313 313 311 313 312 313 316 320 321 318 324 316 292 246 337 213 176 191 237 268 295 298 227 211 231 247 251 264 269 277 299 317 338 87 128 193 26 166 141 149 158
302 308 303 305 307 307 312 319 318 316 317 321 318 317 313 269 296 62 163 154 158 209 240 260 279 293 273 240 232 219 250 262 266 271 294 287 111 301 192 117 52 270 136 152 163
302 300 301 306 305 312 311 317 314 313 313 314 317 323 337 237 248 169 162 170 183 160 208 227 260 270 266 268 269 226 245 257 265 274 263 284 288 121 97 101 100 316 210 172 173
298 298 302 307 309 308 310 309 303 303 302 308 316 316 241 263 233 160 171 164 216 183 215 223 236 245 257 262 262 259 260 255 277 287 296 269 154 97 130 121 138 143 254 186 205
292 296 301 305 307 307 310 300 298 292 296 301 307 300 264 247 258 215 184 202 195 182 227 243 255 268 271 305 274 281 300 294 286 283 273 289 313 143 144 158 159 164 186 213 196
297 302 304 310 313 304 297 292 290 289 290 289 296 275 252 255 257 273 213 256 216 199 219 270 338 332 327 315 330 308 302 256 259 267 283 270 260 141 162 154 161 167 206 210 194
300 306 315 312 298 299 298 287 287 283 270 273 251 227 264 309 235 228 211 243 208 210 266 268 22 300 337 328 314 298 263 255 271 235 250 230 242 118 168 171 163 193 186 216 180
312 305 298 296 299 303 299 277 281 309 222 220 260 288 266 245 189 26 229 222 279 227 225 213 212 210 308 98 251 270 300 309 292 287 249 261 224 213 171 170 174 193 198 188 161
303 303 306 300 297 312 329 353 283 235 247 210 205 239 287 302 119 220 204 191 269 274 255 239 169 226 228 209 224 243 267 268 271 281 339 303 219 205 214 170 169 181 169 184 158
305 301 294 288 295 315 289 253 287 257 304 256 246 236 285 301 273 212 126 176 228 240 252 279 218 242 236 241 216 232 245 258 273 295 305 299 298 251 204 172 176 181 180 141 147
291 291 294 299 310 280 225 256 291 40 292 291 236 181 149 194 260 163 169 186 242 266 261 247 264 271 255 271 274 282 272 288 282 296 295 305 302 285 251 185 176 181 151 144 145
299 300 298 308 306 282 241 258 297 30 317 247 117 148 187 219 253 80 292 239 253 254 283 283 310 317 323 304 315 261 261 274 278 275 271 187 280 297 300 190 186 156 171 175 171
304 297 291 245 304 288 285 338 67 66 12 326 126 195 270 282 15 63 357 277 274 3 24 309 347 3 25 354 355 1 345 263 248 265 295 316 355 288 318 306 229 179 184 183 186
313 306 315 199 224 246 291 301 21 83 245 307 24 350 344 8 29 357 7 7 43 12 333 358 14 38 11 355 6 348 1 339 314 173 291 263 319 290 24 360 14 6 334 212 185
311 297 266 316 240 300 308 346 13 237 119 0 350 337 307 293 56 36 1 35 32 13 2 336 42 7 24 351 349 9 31 349 348 350 256 9 341 82 334 14 8 6 350 321 201
306 298 223 221 250 302 323 2 265 14 27 354 333 300 71 38 22 20 6 64 42 38 0 359 335 14 349 348 316 332 88 316 315 338 298 312 253 313 356 4 11 16 4 0 182
303 221 240 248 224 189 35 310 46 10 356 346 317 10 5 24 14 8 29 70 64 56 52 347 312 323 338 352 355 311 309 224 192 254 319 266 278 327 347 2 8 12 12 12 3
322 286 260 259 250 146 39 292 102 57 344 339 22 22 4 16 9 352 9 40 44 51 55 324 315 349 342 319 339 349 301 338 111 197 248 280 70 335 350 339 358 11 16 8 7
201 305 263 319 41 58 226 80 93 81 10 28 12 349 23 18 332 340 64 88 71 28 24 57 49 310 334 340 322 340 8 354 342 95 301 294 251 246 325 344 355 3 22 23 6
291 313 267 43 42 201 74 37 313 51 16 6 61 338 55 350 335 312 15 32 56 44 45 46 248 326 278 302 4 21 27 30 49 320 274 185 303 33 334 312 340 1 36 56 30
287 237 299 69 44 6 134 108 84 30 61 10 9 33 29 312 338 337 359 30 39 78 109 344 332 317 326 331 356 52 26 12 356 24 3 5 22 359 354 6 356 17 17 40 86
295 322 342 52 70 40 23 132 150 118 109 351 311 291 32 359 319 317 355 20 12 117 161 122 225 286 286 316 317 19 16 11 324 356 320 260 285 357 10 28 13 11 47 76 99
249 290 173 348 10 344 49 344 321 127 142 156 285 300 39 319 299 297 17 359 355 102 5 115 349 337 330 301 324 53 6 20 33 70 327 355 44 315 346 45 24 344 87 84 83
31 8 338 252 123 289 146 199 318 17 121 128 313 359 327 308 40 350 2 341 266 358 340 108 270 291 294 315 98 82 15 0 8 25 338 330 96 345 25 45 19 10 117 109 111
338 325 314 267 258 240 151 69 9 97 267 193 50 342 312 24 350 286 254 236 228 255 264 212 199 286 273 319 341 150 162 9 326 24 300 341 280 265 18 60 51 355 101 176 126